Regional Weather Roundup
Issued by NWS Grand Forks, ND

Home | Current Version | Previous Version | Text Only | Print | Product List | Glossary Off
Versions: 1 2 3 4 5 6 7 8 9 10 11 12 13 14 15 16 17 18 19 20 21 22 23 24 25 26 27 28 29 30 31 32 33 34 35 36 37 38 39 40 41 42 43 44 45 46 47 48 49 50

000
ASUS43 KFGF 240631
RWRFGF
PRAIRIE TO PINES  WEATHER ROUNDUP
NATIONAL WEATHER SERVICE EASTERN NORTH DAKOTA/GRAND FORKS ND
100 AM CDT FRI OCT 24 2014

 **SATELLITE DATA USED TO AUGMENT SKY COVER AT AUTOMATED STATIONS**
 *****  WEATHER ACROSS EASTERN NORTH DAKOTA  *****

CITY           SKY/WX    TMP DP  RH WIND       PRES   REMARKS
GRAND FORKS    MOCLDY    45  38  76 S8        29.75S
6HR MIN TEMP:  45; 6HR MAX TEMP:  55;

GRAND FRKS AFB MOCLDY    51  37  57 SW10      29.75S
GRAND FRKS NWS   N/A     45 N/A N/A S5          N/A
DEVILS LAKE    CLEAR     52  37  58 SW8       29.75S
6HR MIN TEMP:  50; 6HR MAX TEMP:  55;

FARGO          MOCLDY    54  43  66 S12       29.80F
WAHPETON ARPT  PTCLDY    48  41  76 S10       29.83F
$$

 ***** WEATHER ACROSS CENTRAL AND WESTERN NORTH DAKOTA  *****

CITY           SKY/WX    TMP DP  RH WIND       PRES   REMARKS
BISMARCK       CLOUDY    51  32  48 SW8       29.82S
6HR MIN TEMP:  49; 6HR MAX TEMP:  62;

MINOT          MOCLDY    56  32  40 SW13      29.75S
6HR MIN TEMP:  52; 6HR MAX TEMP:  60;

JAMESTOWN      MOCLDY    52  37  56 SW9       29.80S
6HR MIN TEMP:  50; 6HR MAX TEMP:  59;

MINOT AFB      MOCLDY    51  35  54 W9        29.74R
GARRISON         N/A     45  36  70 CALM      29.79R
WILLISTON      CLOUDY    44  35  70 CALM      29.78S
6HR MIN TEMP:  42; 6HR MAX TEMP:  57;

DICKINSON      CLOUDY    50  32  50 W8        29.82S
6HR MIN TEMP:  47; 6HR MAX TEMP:  56;

HETTINGER      CLOUDY    43  29  57 CALM      29.88R
6HR MIN TEMP:  43; 6HR MAX TEMP:  53;

$$

 *****  OTHER AIRPORT OBSERVATIONS IN OUR AREA  *****

CITY           SKY/WX    TMP DP  RH WIND       PRES   REMARKS
WALHALLA         N/A     50  37  62 S5        29.71S
GRAFTON AIRPOR FAIR      43  37  81 S8        29.73S
VALLEY CITY AR FAIR      46  39  76 SW9       29.81S
CANDO          FAIR      41  36  81 SW7       29.75S
CAVALIER APRT  FAIR      48  39  71 SW6       29.71F
GWINNER        CLEAR     52  45  76 SW8       29.85R
SHEYENNE NWR     N/A     41  39  94 S2        29.95S
ROLLA          FAIR      48  36  61 SW7       29.74S
 ***** THE ABOVE OBSERVATIONS ARE NON NWS ARE NOT QUALITY
       CONTROLLED AND MAY MIS-REPORT RAIN FOR SNOW...
$$

  *****  WEATHER ACROSS NORTHERN MINNESOTA  *****

CITY           SKY/WX    TMP DP  RH WIND       PRES   REMARKS
FLAG ISLAND    CLOUDY    50  45  81 SE7       29.72F
WARROAD        CLOUDY    52  43  71 S6        29.75S
ROSEAU         CLOUDY    50  43  76 S9        29.75R
HALLOCK        MOCLDY    46  39  76 S6        29.72S
THF RVR FALLS  CLOUDY    50  41  71 S8        29.78S
6HR MIN TEMP:  50; 6HR MAX TEMP:  57;

BAUDETTE       CLOUDY    51  39  63 S6        29.76F
6HR MIN TEMP:  46; 6HR MAX TEMP:  53;

WASKISH        MOCLDY    52  39  62 CALM      29.80S
CROOKSTON      MOCLDY    50  43  76 S12       29.78S
STEPHEN NDAWN    N/A     54  39  58 S9          N/A
GREENBUSH NDAW   N/A     50  41  71 S6          N/A
$$
  *****  WEATHER ACROSS CENTRAL AND WEST MINNESOTA  *****

CITY           SKY/WX    TMP DP  RH WIND       PRES   REMARKS
FOSSTON        CLOUDY    52  41  66 S13       29.81F
BEMIDJI        CLOUDY    55  41  59 S8        29.82F
PARK RAPIDS    CLOUDY    51  41  68 S7        29.86F
6HR MIN TEMP:  49; 6HR MAX TEMP:  56;

ELBOW LAKE     FAIR      47  41  79 SE7       29.86F
6HR MIN TEMP:  47; 6HR MAX TEMP:  54;

WADENA         CLOUDY    48  41  76 S3        29.87S
DETROIT LAKES  MOCLDY    55  45  67 S8        29.84F
MOORHEAD       MOCLDY    50  45  81 S9        29.83S
FERGUS FALLS   CLEAR     48  39  71 S8        29.86S
MORRIS MN      PTCLDY    46  43  87 SE7       29.86S
STAPLES        MOCLDY    48  39  71 S5        29.89R
$$
  *****  WEATHER ELSEWHERE ACROSS MINNESOTA  *****

CITY           SKY/WX    TMP DP  RH WIND       PRES   REMARKS
DULUTH         FOG       49  46  90 SW9       29.92S VSB 3/4
6HR MIN TEMP:  47; 6HR MAX TEMP:  51;

INTRNTL FALLS  MOCLDY    49  39  68 S3        29.80F
6HR MIN TEMP:  41; 6HR MAX TEMP:  52;

ELY            PTCLDY    46  45  93 CALM      29.89S FOG
CLOQUET        FOG       48  46  93 S7        29.93R VSB 1/2
WHEATON        CLEAR     48  43  81 S10       29.86F
BRAINERD       CLOUDY    50  38  63 S7        29.90S
6HR MIN TEMP:  45; 6HR MAX TEMP:  53;

HIBBING        FOG       37  35  92 CALM      29.89S VSB 1/4
6HR MIN TEMP:  34; 6HR MAX TEMP:  49;

ALEXANDRIA     MOCLDY    55  43  63 S12       29.89F
6HR MIN TEMP:  51; 6HR MAX TEMP:  56;

SAINT CLOUD    MOCLDY    45  39  79 SE5       29.93S
6HR MIN TEMP:  43; 6HR MAX TEMP:  59;

MINNEAPOLIS    PTCLDY    48  46  93 SE7       29.97S
6HR MIN TEMP:  48; 6HR MAX TEMP:  59;

$$

  *****  WEATHER ACROSS SOUTH DAKOTA  *****

CITY           SKY/WX    TMP DP  RH WIND       PRES   REMARKS
SIOUX FALLS    PTCLDY    56  48  74 S10       29.90F
6HR MIN TEMP:  56; 6HR MAX TEMP:  60;

BROOKINGS      NOT AVBL
WATERTOWN      PTCLDY    48  44  86 S8        29.86F
6HR MIN TEMP:  48; 6HR MAX TEMP:  56;

HURON          CLOUDY    49  45  86 SE6       29.84F
6HR MIN TEMP:  48; 6HR MAX TEMP:  58;

SISSETON         N/A     54  46  74 SW13G18   29.83F
ABERDEEN       MOCLDY    41  39  93 S7        29.84F
6HR MIN TEMP:  39; 6HR MAX TEMP:  53;

MITCHELL       MOCLDY    52  49  89 S7        29.85F
PIERRE         MOCLDY    46  36  68 W6        29.84S
6HR MIN TEMP:  41; 6HR MAX TEMP:  55;

MOBRIDGE       MOCLDY    48  43  82 SE5       29.83S
RAPID CITY     MOCLDY    46  33  60 W5        29.92S
6HR MIN TEMP:  42; 6HR MAX TEMP:  55;

$$

  *****  SOME WEATHER IN NEARBY STATES *****

CITY           SKY/WX    TMP DP  RH WIND       PRES   REMARKS
GLASGOW MT     MOCLDY    49  38  65 SE6       29.76F
6HR MIN TEMP:  46; 6HR MAX TEMP:  60;

GREAT FALLS MT MOCLDY    49  38  65 SW12      29.88S
6HR MIN TEMP:  49; 6HR MAX TEMP:  59;

CHEYENNE WY    CLOUDY    52  31  44 W10       30.14S
6HR MIN TEMP:  51; 6HR MAX TEMP:  61;

SCOTTSBLUFF NE MOCLDY    45  36  70 E5        30.02S
6HR MIN TEMP:  44; 6HR MAX TEMP:  64;

OMAHA NE       MOCLDY    55  49  80 SE9       30.00F
6HR MIN TEMP:  55; 6HR MAX TEMP:  67;

DES MOINES IA  FOG       53  52  96 S8        30.03F VSB 1/4
6HR MIN TEMP:  53; 6HR MAX TEMP:  63;

DAVENPORT IA   CLEAR     45  42  89 SW3       30.05S
6HR MIN TEMP:  45; 6HR MAX TEMP:  57;

CHICAGO IL     CLOUDY    54  43  66 S6        30.04F
6HR MIN TEMP:  54; 6HR MAX TEMP:  55;

EAU CLAIRE WI  CLOUDY    49  48  97 S6        30.01S FOG
6HR MIN TEMP:  49; 6HR MAX TEMP:  52;

LA CROSSE WI   CLOUDY    51  49  92 SW7       30.03S FOG
6HR MIN TEMP:  50; 6HR MAX TEMP:  51;

$$

  *****  SOME NATIONAL WEATHER *****

CITY           SKY/WX    TMP DP  RH WIND       PRES   REMARKS
LA GUARDIA NY  CLOUDY    52  45  76 NW12      29.76S
6HR MIN TEMP:  52; 6HR MAX TEMP:  53; 6HR PCP:  0.02;

RALEIGH NC     MOCLDY    51  41  68 VRB5      30.00F
6HR MIN TEMP:  51; 6HR MAX TEMP:  61;

ATLANTA GA     MOCLDY    52  45  77 NW6       30.03S
6HR MIN TEMP:  51; 6HR MAX TEMP:  62;

NEW ORLEANS LA PTCLDY    64  50  60 NE9       30.07S
6HR MIN TEMP:  61; 6HR MAX TEMP:  69;

OKLAHOMA CITY  PTCLDY    61  57  87 S6        30.09F
6HR MIN TEMP:  61; 6HR MAX TEMP:  71;

ALBUQUERQUE NM CLEAR     58  37  45 E3        30.27S
6HR MIN TEMP:  54; 6HR MAX TEMP:  73;

SALT LAKE CITY MOCLDY    55  41  59 NW7       30.07R
6HR MIN TEMP:  54; 6HR MAX TEMP:  61;




USA.gov is the U.S. government's official web portal to all federal, state and local government web resources and services.